Powrót do katalogu

STARLINK-31064

AktywnyŁącznośćVLEO
NORAD 58631·PAYLOAD·🇺🇸 United States

Wystrzelony Dec 23, 2023 z Cape Canaveral Space Force Station

Loading…

Następne Przeloty (najbliższe 24 godziny)

TLE

ŚwieżeSource: CelesTrak SupGP

Epoka: Sep 14, 2026, 22:25 UTC

1 58631C 23203P   26257.93451389  .00060059  00000+0  21767-2 0  2578
2 58631  43.0028  82.1347 0001374 274.1354 306.0014 15.27528390    15

Śledź STARLINK-31064 w czasie rzeczywistym z AllMySat

Download on the App Store